Year,Month,Day,Hour,Minute,Value (Times are PST for temperature in C)
2009,06,19,00,00,15.50
2009,06,19,00,01,15.60
2009,06,19,00,02,15.60
2009,06,19,00,03,15.60
2009,06,19,00,04,15.60
2009,06,19,00,05,15.60
2009,06,19,00,06,15.70
2009,06,19,00,07,15.70
2009,06,19,00,08,15.70
2009,06,19,00,09,15.70
2009,06,19,00,10,15.70
2009,06,19,00,11,15.80
2009,06,19,00,12,15.80
2009,06,19,00,13,15.80
2009,06,19,00,14,15.80
2009,06,19,00,15,15.80
2009,06,19,00,16,15.80
2009,06,19,00,17,15.90
2009,06,19,00,18,15.90
2009,06,19,00,19,15.90
2009,06,19,00,20,15.90
2009,06,19,00,21,15.90
2009,06,19,00,22,15.90
2009,06,19,00,23,15.90
2009,06,19,00,24,15.90
2009,06,19,00,25,15.90
2009,06,19,00,26,15.90
2009,06,19,00,27,15.90
2009,06,19,00,28,15.90
2009,06,19,00,29,15.90
2009,06,19,00,30,15.90
2009,06,19,00,31,15.90
2009,06,19,00,32,15.90
2009,06,19,00,33,15.90
2009,06,19,00,34,15.90
2009,06,19,00,35,15.80
2009,06,19,00,36,15.80
2009,06,19,00,37,15.80
2009,06,19,00,38,15.80
2009,06,19,00,39,15.80
2009,06,19,00,40,15.80
2009,06,19,00,41,15.70
2009,06,19,00,42,15.70
2009,06,19,00,43,15.70
2009,06,19,00,44,15.70
2009,06,19,00,45,15.70
2009,06,19,00,46,15.70
2009,06,19,00,47,15.60
2009,06,19,00,48,15.60
2009,06,19,00,49,15.50
2009,06,19,00,50,15.50
2009,06,19,00,51,15.40
2009,06,19,00,52,15.30
2009,06,19,00,53,15.30
2009,06,19,00,54,15.20
2009,06,19,00,55,15.10
2009,06,19,00,56,15.00
2009,06,19,00,57,15.00
2009,06,19,00,58,15.00
2009,06,19,00,59,15.00
2009,06,19,01,00,15.00
2009,06,19,01,01,15.00
2009,06,19,01,02,15.00
2009,06,19,01,03,14.90
2009,06,19,01,04,14.90
2009,06,19,01,05,14.90
2009,06,19,01,06,14.80
2009,06,19,01,07,14.80
2009,06,19,01,08,14.80
2009,06,19,01,09,14.80
2009,06,19,01,10,14.90
2009,06,19,01,11,15.00
2009,06,19,01,12,15.00
2009,06,19,01,13,15.00
2009,06,19,01,14,15.00
2009,06,19,01,15,15.00
2009,06,19,01,16,15.00
2009,06,19,01,17,15.00
2009,06,19,01,18,15.00
2009,06,19,01,19,15.00
2009,06,19,01,20,15.10
2009,06,19,01,21,15.10
2009,06,19,01,22,15.10
2009,06,19,01,23,15.10
2009,06,19,01,24,15.20
2009,06,19,01,25,15.20
2009,06,19,01,26,15.20
2009,06,19,01,27,15.20
2009,06,19,01,28,15.20
2009,06,19,01,29,15.20
2009,06,19,01,30,15.20
2009,06,19,01,31,15.20
2009,06,19,01,32,15.20
2009,06,19,01,33,15.20
2009,06,19,01,34,15.20
2009,06,19,01,35,15.20
2009,06,19,01,36,15.20
2009,06,19,01,37,15.20
2009,06,19,01,38,15.20
2009,06,19,01,39,15.30
2009,06,19,01,40,15.30
2009,06,19,01,41,15.30
2009,06,19,01,42,15.30
2009,06,19,01,43,15.30
2009,06,19,01,44,15.30
2009,06,19,01,49,15.30
2009,06,19,01,50,15.30
2009,06,19,01,51,15.40
2009,06,19,01,52,15.40
2009,06,19,01,53,15.40
2009,06,19,01,54,15.40
2009,06,19,01,55,15.40
2009,06,19,01,56,15.40
2009,06,19,01,57,15.40
2009,06,19,01,58,15.40
2009,06,19,01,59,15.40
2009,06,19,02,00,15.40
2009,06,19,02,01,15.40
2009,06,19,02,02,15.40
2009,06,19,02,03,15.40
2009,06,19,02,04,15.40
2009,06,19,02,05,15.40
2009,06,19,02,06,15.40
2009,06,19,02,07,15.40
2009,06,19,02,08,15.40
2009,06,19,02,09,15.40
2009,06,19,02,10,15.40
2009,06,19,02,11,15.40
2009,06,19,02,12,15.30
2009,06,19,02,13,15.30
2009,06,19,02,14,15.30
2009,06,19,02,15,15.30
2009,06,19,02,16,15.30
2009,06,19,02,17,15.30
2009,06,19,02,18,15.30
2009,06,19,02,19,15.30
2009,06,19,02,20,15.40
2009,06,19,02,21,15.40
2009,06,19,02,22,15.40
2009,06,19,02,23,15.40
2009,06,19,02,24,15.40
2009,06,19,02,25,15.40
2009,06,19,02,26,15.40
2009,06,19,02,27,15.40
2009,06,19,02,28,15.40
2009,06,19,02,29,15.40
2009,06,19,02,30,15.40
2009,06,19,02,31,15.40
2009,06,19,02,32,15.40
2009,06,19,02,33,15.40
2009,06,19,02,34,15.40
2009,06,19,02,35,15.40
2009,06,19,02,36,15.40
2009,06,19,02,37,15.40
2009,06,19,02,38,15.40
2009,06,19,02,39,15.30
2009,06,19,02,40,15.30
2009,06,19,02,41,15.30
2009,06,19,02,42,15.30
2009,06,19,02,43,15.20
2009,06,19,02,44,15.20
2009,06,19,02,45,15.10
2009,06,19,02,46,15.00
2009,06,19,02,47,15.00
2009,06,19,02,48,15.00
2009,06,19,02,49,15.00
2009,06,19,02,50,15.00
2009,06,19,02,51,15.00
2009,06,19,02,52,14.90
2009,06,19,02,53,14.80
2009,06,19,02,54,14.80
2009,06,19,02,55,14.70
2009,06,19,02,56,14.70
2009,06,19,02,57,14.60
2009,06,19,02,58,14.60
2009,06,19,02,59,14.50
2009,06,19,03,00,14.50
2009,06,19,03,01,14.40
2009,06,19,03,02,14.40
2009,06,19,03,03,14.30
2009,06,19,03,04,14.30
2009,06,19,03,05,14.30
2009,06,19,03,06,14.20
2009,06,19,03,07,14.20
2009,06,19,03,08,14.20
2009,06,19,03,09,14.10
2009,06,19,03,10,14.10
2009,06,19,03,11,14.10
2009,06,19,03,12,14.00
2009,06,19,03,13,14.00
2009,06,19,03,14,13.90
2009,06,19,03,15,13.90
2009,06,19,03,16,13.90
2009,06,19,03,17,13.80
2009,06,19,03,18,13.80
2009,06,19,03,19,13.80
2009,06,19,03,20,13.80
2009,06,19,03,21,13.80
2009,06,19,03,22,13.70
2009,06,19,03,23,13.70
2009,06,19,03,24,13.70
2009,06,19,03,25,13.70
2009,06,19,03,26,13.70
2009,06,19,03,27,13.60
2009,06,19,03,28,13.60
2009,06,19,03,29,13.60
2009,06,19,03,30,13.60
2009,06,19,03,31,13.60
2009,06,19,03,32,13.60
2009,06,19,03,33,13.60
2009,06,19,03,34,13.60
2009,06,19,03,35,13.60
2009,06,19,03,36,13.60
2009,06,19,03,37,13.60
2009,06,19,03,38,13.50
2009,06,19,03,39,13.50
2009,06,19,03,40,13.50
2009,06,19,03,41,13.50
2009,06,19,03,42,13.50
2009,06,19,03,43,13.50
2009,06,19,03,44,13.50
2009,06,19,03,45,13.50
2009,06,19,03,46,13.50
2009,06,19,03,47,13.50
2009,06,19,03,48,13.50
2009,06,19,03,49,13.50
2009,06,19,03,50,13.50
2009,06,19,03,51,13.50
2009,06,19,03,52,13.50
2009,06,19,03,53,13.50
2009,06,19,03,54,13.50
2009,06,19,03,55,13.50
2009,06,19,03,56,13.50
2009,06,19,03,57,13.50
2009,06,19,03,58,13.50
2009,06,19,03,59,13.50
2009,06,19,04,00,13.50
2009,06,19,04,01,13.50
2009,06,19,04,02,13.50
2009,06,19,04,03,13.60
2009,06,19,04,04,13.60
2009,06,19,04,05,13.70
2009,06,19,04,06,13.70
2009,06,19,04,07,13.70
2009,06,19,04,08,13.70
2009,06,19,04,09,13.70
2009,06,19,04,10,13.70
2009,06,19,04,11,13.70
2009,06,19,04,12,13.70
2009,06,19,04,13,13.70
2009,06,19,04,14,13.70
2009,06,19,04,15,13.70
2009,06,19,04,16,13.70
2009,06,19,04,17,13.70
2009,06,19,04,18,13.70
2009,06,19,04,19,13.70
2009,06,19,04,20,13.70
2009,06,19,04,21,13.70
2009,06,19,04,22,13.70
2009,06,19,04,23,13.70
2009,06,19,04,24,13.70
2009,06,19,04,25,13.70
2009,06,19,04,26,13.70
2009,06,19,04,27,13.70
2009,06,19,04,28,13.70
2009,06,19,04,29,13.70
2009,06,19,04,30,13.70
2009,06,19,04,31,13.70
2009,06,19,04,32,13.70
2009,06,19,04,33,13.70
2009,06,19,04,34,13.70
2009,06,19,04,35,13.70
2009,06,19,04,36,13.70
2009,06,19,04,37,13.70
2009,06,19,04,38,13.70
2009,06,19,04,39,13.70
2009,06,19,04,40,13.70
2009,06,19,04,41,13.70
2009,06,19,04,42,13.70
2009,06,19,04,43,13.70
2009,06,19,04,44,13.70
2009,06,19,04,45,13.70
2009,06,19,04,46,13.70
2009,06,19,04,47,13.70
2009,06,19,04,48,13.70
2009,06,19,04,49,13.70
2009,06,19,04,50,13.70
2009,06,19,04,51,13.70
2009,06,19,04,52,13.70
2009,06,19,04,53,13.70
2009,06,19,04,54,13.70
2009,06,19,04,55,13.80
2009,06,19,04,56,13.80
2009,06,19,04,57,13.80
2009,06,19,04,58,13.80
2009,06,19,04,59,13.90
2009,06,19,05,00,13.90
2009,06,19,05,01,13.90
2009,06,19,05,02,13.90
2009,06,19,05,03,13.90
2009,06,19,05,04,13.90
2009,06,19,05,05,13.90
2009,06,19,05,06,13.90
2009,06,19,05,07,13.90
2009,06,19,05,08,13.90
2009,06,19,05,09,13.90
2009,06,19,05,10,14.00
2009,06,19,05,11,14.00
2009,06,19,05,12,14.00
2009,06,19,05,13,14.00
2009,06,19,05,14,14.10
2009,06,19,05,15,14.10
2009,06,19,05,16,14.10
2009,06,19,05,17,14.10
2009,06,19,05,18,14.10
2009,06,19,05,19,14.10
2009,06,19,05,20,14.10
2009,06,19,05,21,14.10
2009,06,19,05,22,14.20
2009,06,19,05,23,14.20
2009,06,19,05,24,14.20
2009,06,19,05,25,14.30
2009,06,19,05,26,14.30
2009,06,19,05,27,14.30
2009,06,19,05,28,14.30
2009,06,19,05,29,14.30
2009,06,19,05,30,14.30
2009,06,19,05,31,14.40
2009,06,19,05,32,14.40
2009,06,19,05,33,14.40
2009,06,19,05,34,14.40
2009,06,19,05,35,14.40
2009,06,19,05,36,14.50
2009,06,19,05,37,14.50
2009,06,19,05,38,14.60
2009,06,19,05,39,14.60
2009,06,19,05,40,14.60
2009,06,19,05,41,14.60
2009,06,19,05,42,14.60
2009,06,19,05,43,14.70
2009,06,19,05,44,14.70
2009,06,19,05,45,14.70
2009,06,19,05,46,14.70
2009,06,19,05,47,14.70
2009,06,19,05,48,14.80
2009,06,19,05,49,14.80
2009,06,19,05,50,14.80
2009,06,19,05,51,14.80
2009,06,19,05,52,14.80
2009,06,19,05,53,14.90
2009,06,19,05,54,14.90
2009,06,19,05,55,14.90
2009,06,19,05,56,14.90
2009,06,19,05,57,14.90
2009,06,19,05,58,14.90
2009,06,19,05,59,14.90
2009,06,19,06,00,14.90
2009,06,19,06,01,14.80
2009,06,19,06,02,14.80
2009,06,19,06,03,14.80
2009,06,19,06,04,14.80
2009,06,19,06,05,14.80
2009,06,19,06,06,14.80
2009,06,19,06,07,14.80
2009,06,19,06,08,14.80
2009,06,19,06,09,14.80
2009,06,19,06,10,14.80
2009,06,19,06,11,14.80
2009,06,19,06,12,14.80
2009,06,19,06,13,14.80
2009,06,19,06,14,14.80
2009,06,19,06,15,14.90
2009,06,19,06,16,15.00
2009,06,19,06,17,15.00
2009,06,19,06,18,15.00
2009,06,19,06,19,15.00
2009,06,19,06,20,15.00
2009,06,19,06,21,15.00
2009,06,19,06,22,15.00
2009,06,19,06,23,15.00
2009,06,19,06,24,15.00
2009,06,19,06,25,15.00
2009,06,19,06,26,15.00
2009,06,19,06,27,15.00
2009,06,19,06,28,15.00
2009,06,19,06,29,15.00
2009,06,19,06,30,15.00
2009,06,19,06,31,15.00
2009,06,19,06,32,15.00
2009,06,19,06,33,15.00
2009,06,19,06,34,15.00
2009,06,19,06,35,15.00
2009,06,19,06,36,15.00
2009,06,19,06,37,15.00
2009,06,19,06,38,15.00
2009,06,19,06,39,15.00
2009,06,19,06,40,15.00
2009,06,19,06,41,15.00
2009,06,19,06,42,15.00
2009,06,19,06,43,15.00
2009,06,19,06,44,15.00
2009,06,19,06,45,15.00
2009,06,19,06,46,15.00
2009,06,19,06,47,15.00
2009,06,19,06,48,15.00
2009,06,19,06,49,15.00
2009,06,19,06,50,15.00
2009,06,19,06,51,15.00
2009,06,19,06,52,15.00
2009,06,19,06,53,15.00
2009,06,19,06,54,15.00
2009,06,19,06,55,15.00
2009,06,19,06,56,15.00
2009,06,19,06,57,15.00
2009,06,19,06,58,15.00
2009,06,19,06,59,15.00
2009,06,19,07,00,15.00
2009,06,19,07,01,15.00
2009,06,19,07,02,15.00
2009,06,19,07,03,15.00
2009,06,19,07,04,15.10
2009,06,19,07,05,15.10
2009,06,19,07,06,15.10
2009,06,19,07,07,15.10
2009,06,19,07,08,15.20
2009,06,19,07,09,15.20
2009,06,19,07,10,15.20
2009,06,19,07,11,15.20
2009,06,19,07,12,15.20
2009,06,19,07,13,15.20
2009,06,19,07,14,15.20
2009,06,19,07,15,15.20
2009,06,19,07,16,15.20
2009,06,19,07,17,15.20
2009,06,19,07,18,15.20
2009,06,19,07,19,15.20
2009,06,19,07,20,15.20
2009,06,19,07,21,15.20
2009,06,19,07,22,15.30
2009,06,19,07,23,15.30
2009,06,19,07,24,15.30
2009,06,19,07,25,15.30
2009,06,19,07,26,15.30
2009,06,19,07,27,15.30
2009,06,19,07,28,15.30
2009,06,19,07,29,15.30
2009,06,19,07,30,15.30
2009,06,19,07,31,15.30
2009,06,19,07,32,15.40
2009,06,19,07,33,15.40
2009,06,19,07,34,15.40
2009,06,19,07,35,15.40
2009,06,19,07,36,15.40
2009,06,19,07,37,15.40
2009,06,19,07,38,15.40
2009,06,19,07,39,15.40
2009,06,19,07,40,15.40
2009,06,19,07,41,15.40
2009,06,19,07,42,15.50
2009,06,19,07,43,15.50
2009,06,19,07,44,15.50
2009,06,19,07,45,15.50
2009,06,19,07,46,15.50
2009,06,19,07,47,15.50
2009,06,19,07,48,15.60
2009,06,19,07,49,15.60
2009,06,19,07,50,15.60
2009,06,19,07,51,15.60
2009,06,19,07,52,15.60
2009,06,19,07,53,15.60
2009,06,19,07,54,15.60
2009,06,19,07,55,15.60
2009,06,19,07,56,15.60
2009,06,19,07,57,15.70
2009,06,19,07,58,15.70
2009,06,19,07,59,15.70
2009,06,19,08,00,15.70
2009,06,19,08,01,15.70
2009,06,19,08,02,15.70
2009,06,19,08,03,15.70
2009,06,19,08,04,15.70
2009,06,19,08,05,15.70
2009,06,19,08,06,15.70
2009,06,19,08,07,15.70
2009,06,19,08,08,15.70
2009,06,19,08,09,15.80
2009,06,19,08,10,15.80
2009,06,19,08,11,15.80
2009,06,19,08,12,15.80
2009,06,19,08,13,15.80
2009,06,19,08,14,15.80
2009,06,19,08,15,15.80
2009,06,19,08,16,15.90
2009,06,19,08,17,15.80
2009,06,19,08,18,15.90
2009,06,19,08,19,15.90
2009,06,19,08,20,15.90
2009,06,19,08,21,15.90
2009,06,19,08,22,15.90
2009,06,19,08,23,15.90
2009,06,19,08,24,15.90
2009,06,19,08,25,15.90
2009,06,19,08,26,15.90
2009,06,19,08,27,15.90
2009,06,19,08,28,16.00
2009,06,19,08,29,16.00
2009,06,19,08,30,16.10
2009,06,19,08,31,16.10
2009,06,19,08,32,16.10
2009,06,19,08,33,16.10
2009,06,19,08,34,16.10
2009,06,19,08,35,16.10
2009,06,19,08,36,16.10
2009,06,19,08,37,16.10
2009,06,19,08,38,16.10
2009,06,19,08,39,16.10
2009,06,19,08,40,16.10
2009,06,19,08,41,16.10
2009,06,19,08,42,16.10
2009,06,19,08,43,16.10
2009,06,19,08,44,16.10
2009,06,19,08,45,16.20
2009,06,19,08,46,16.20
2009,06,19,08,47,16.20
2009,06,19,08,48,16.20
2009,06,19,08,49,16.20
2009,06,19,08,50,16.20
2009,06,19,08,51,16.30
2009,06,19,08,52,16.30
2009,06,19,08,53,16.30
2009,06,19,08,54,16.30
2009,06,19,08,55,16.30
2009,06,19,08,56,16.30
2009,06,19,08,57,16.30
2009,06,19,08,58,16.30
2009,06,19,08,59,16.30
2009,06,19,09,00,16.30
2009,06,19,09,01,16.30
2009,06,19,09,02,16.30
2009,06,19,09,03,16.40
2009,06,19,09,04,16.40
2009,06,19,09,05,16.40
2009,06,19,09,06,16.40
2009,06,19,09,07,16.50
2009,06,19,09,08,16.50
2009,06,19,09,09,16.50
2009,06,19,09,10,16.60
2009,06,19,09,11,16.60
2009,06,19,09,12,16.70
2009,06,19,09,13,16.70
2009,06,19,09,14,16.70
2009,06,19,09,15,16.70
2009,06,19,09,16,16.70
2009,06,19,09,17,16.70
2009,06,19,09,18,16.80
2009,06,19,09,19,16.80
2009,06,19,09,20,16.80
2009,06,19,09,21,16.80
2009,06,19,09,22,16.90
2009,06,19,09,23,16.90
2009,06,19,09,24,16.90
2009,06,19,09,25,16.90
2009,06,19,09,26,16.90
2009,06,19,09,27,16.90
2009,06,19,09,28,16.90
2009,06,19,09,29,16.80
2009,06,19,09,30,16.80
2009,06,19,09,31,16.80
2009,06,19,09,32,16.80
2009,06,19,09,33,16.70
2009,06,19,09,34,16.70
2009,06,19,09,35,16.70
2009,06,19,09,36,16.70
2009,06,19,09,37,16.70
2009,06,19,09,38,16.70
2009,06,19,09,39,16.70
2009,06,19,09,40,16.70
2009,06,19,09,41,16.70
2009,06,19,09,42,16.70
2009,06,19,09,43,16.70
2009,06,19,09,44,16.70
2009,06,19,09,45,16.70
2009,06,19,09,46,16.70
2009,06,19,09,47,16.70
2009,06,19,09,48,16.70
2009,06,19,09,49,16.80
2009,06,19,09,50,16.80
2009,06,19,09,51,16.80
2009,06,19,09,52,16.80
2009,06,19,09,53,16.80
2009,06,19,09,54,16.80
2009,06,19,09,55,16.80
2009,06,19,09,56,16.80
2009,06,19,09,57,16.80
2009,06,19,09,58,16.80
2009,06,19,09,59,16.80
2009,06,19,10,00,16.80
2009,06,19,10,01,16.80
2009,06,19,10,02,16.80
2009,06,19,10,03,16.80
2009,06,19,10,04,16.80
2009,06,19,10,05,16.80
2009,06,19,10,06,16.80
2009,06,19,10,07,16.80
2009,06,19,10,08,16.80
2009,06,19,10,09,16.80
2009,06,19,10,10,16.80
2009,06,19,10,11,16.80
2009,06,19,10,12,16.80
2009,06,19,10,13,16.80
2009,06,19,10,14,16.80
2009,06,19,10,15,16.80
2009,06,19,10,16,16.80
2009,06,19,10,17,16.80
2009,06,19,10,18,16.90
2009,06,19,10,19,16.90
2009,06,19,10,20,16.90
2009,06,19,10,21,16.90
2009,06,19,10,22,16.90
2009,06,19,10,23,17.00
2009,06,19,10,24,17.00
2009,06,19,10,25,17.10
2009,06,19,10,26,17.10
2009,06,19,10,27,17.20
2009,06,19,10,28,17.20
2009,06,19,10,29,17.20
2009,06,19,10,30,17.20
2009,06,19,10,31,17.30
2009,06,19,10,32,17.30
2009,06,19,10,33,17.30
2009,06,19,10,34,17.30
2009,06,19,10,35,17.30
2009,06,19,10,36,17.30
2009,06,19,10,37,17.30
2009,06,19,10,38,17.30
2009,06,19,10,39,17.40
2009,06,19,10,40,17.40
2009,06,19,10,41,17.40
2009,06,19,10,42,17.40
2009,06,19,10,43,17.50
2009,06,19,10,44,17.50
2009,06,19,10,45,17.60
2009,06,19,10,46,17.60
2009,06,19,10,47,17.70
2009,06,19,10,48,17.80
2009,06,19,10,49,17.80
2009,06,19,10,50,17.90
2009,06,19,10,51,18.00
2009,06,19,10,52,18.00
2009,06,19,10,53,18.10
2009,06,19,10,54,18.20
2009,06,19,10,55,18.20
2009,06,19,10,56,18.30
2009,06,19,10,57,18.30
2009,06,19,10,58,18.30
2009,06,19,10,59,18.40
2009,06,19,11,00,18.40
2009,06,19,11,01,18.30
2009,06,19,11,02,18.20
2009,06,19,11,03,18.10
2009,06,19,11,04,18.10
2009,06,19,11,05,18.10
2009,06,19,11,06,18.10
2009,06,19,11,07,18.10
2009,06,19,11,08,18.10
2009,06,19,11,09,18.00
2009,06,19,11,10,18.00
2009,06,19,11,11,18.00
2009,06,19,11,12,18.00
2009,06,19,11,13,18.00
2009,06,19,11,14,18.00
2009,06,19,11,15,18.00
2009,06,19,11,16,18.10
2009,06,19,11,17,18.20
2009,06,19,11,18,18.30
2009,06,19,11,19,18.30
2009,06,19,11,20,18.40
2009,06,19,11,21,18.30
2009,06,19,11,22,18.30
2009,06,19,11,23,18.30
2009,06,19,11,24,18.30
2009,06,19,11,25,18.30
2009,06,19,11,26,18.30
2009,06,19,11,27,18.20
2009,06,19,11,28,18.20
2009,06,19,11,29,18.20
2009,06,19,11,30,18.20
2009,06,19,11,31,18.10
2009,06,19,11,32,18.10
2009,06,19,11,33,18.10
2009,06,19,11,34,18.10
2009,06,19,11,35,18.10
2009,06,19,11,36,18.10
2009,06,19,11,37,18.10
2009,06,19,11,38,18.20
2009,06,19,11,39,18.20
2009,06,19,11,40,18.20
2009,06,19,11,41,18.10
2009,06,19,11,42,18.00
2009,06,19,11,43,17.90
2009,06,19,11,44,17.90
2009,06,19,11,45,17.90
2009,06,19,11,46,17.90
2009,06,19,11,47,17.80
2009,06,19,11,48,17.90
2009,06,19,11,49,17.90
2009,06,19,11,50,18.00
2009,06,19,11,51,18.10
2009,06,19,11,52,18.20
2009,06,19,11,53,18.20
2009,06,19,11,54,18.10
2009,06,19,11,55,18.10
2009,06,19,11,56,18.10
2009,06,19,11,57,18.10
2009,06,19,11,58,18.10
2009,06,19,11,59,18.20
2009,06,19,12,00,18.20
2009,06,19,12,01,18.30
2009,06,19,12,02,18.30
2009,06,19,12,03,18.20
2009,06,19,12,04,18.20
2009,06,19,12,05,18.30
2009,06,19,12,06,18.30
2009,06,19,12,07,18.40
2009,06,19,12,08,18.40
2009,06,19,12,09,18.40
2009,06,19,12,10,18.40
2009,06,19,12,11,18.30
2009,06,19,12,12,18.30
2009,06,19,12,13,18.30
2009,06,19,12,14,18.30
2009,06,19,12,15,18.40
2009,06,19,12,16,18.50
2009,06,19,12,17,18.60
2009,06,19,12,18,18.70
2009,06,19,12,19,18.70
2009,06,19,12,20,18.80
2009,06,19,12,21,18.80
2009,06,19,12,22,18.80
2009,06,19,12,23,18.80
2009,06,19,12,24,18.70
2009,06,19,12,25,18.60
2009,06,19,12,26,18.60
2009,06,19,12,27,18.70
2009,06,19,12,28,18.70
2009,06,19,12,29,18.70
2009,06,19,12,30,18.70
2009,06,19,12,31,18.70
2009,06,19,12,32,18.60
2009,06,19,12,33,18.60
2009,06,19,12,34,18.60
2009,06,19,12,35,18.70
2009,06,19,12,36,18.80
2009,06,19,12,37,18.80
2009,06,19,12,38,18.90
2009,06,19,12,39,18.90
2009,06,19,12,40,19.00
2009,06,19,12,41,19.00
2009,06,19,12,42,18.90
2009,06,19,12,43,18.90
2009,06,19,12,44,18.90
2009,06,19,12,45,18.80
2009,06,19,12,46,18.80
2009,06,19,12,47,18.70
2009,06,19,12,48,18.70
2009,06,19,12,49,18.60
2009,06,19,12,50,18.50
2009,06,19,12,51,18.40
2009,06,19,12,52,18.30
2009,06,19,12,53,18.30
2009,06,19,12,54,18.40
2009,06,19,12,55,18.40
2009,06,19,12,56,18.50
2009,06,19,12,57,18.50
2009,06,19,12,58,18.60
2009,06,19,12,59,18.70
2009,06,19,13,00,18.80
2009,06,19,13,01,18.80
2009,06,19,13,02,18.80
2009,06,19,13,03,18.90
2009,06,19,13,04,19.00
2009,06,19,13,05,19.10
2009,06,19,13,06,19.20
2009,06,19,13,07,19.40
2009,06,19,13,08,19.50
2009,06,19,13,09,19.60
2009,06,19,13,10,19.70
2009,06,19,13,11,19.70
2009,06,19,13,12,19.70
2009,06,19,13,13,19.60
2009,06,19,13,14,19.50
2009,06,19,13,15,19.50
2009,06,19,13,16,19.40
2009,06,19,13,17,19.40
2009,06,19,13,18,19.40
2009,06,19,13,19,19.40
2009,06,19,13,20,19.40
2009,06,19,13,21,19.40
2009,06,19,13,22,19.50
2009,06,19,13,23,19.50
2009,06,19,13,24,19.60
2009,06,19,13,25,19.60
2009,06,19,13,26,19.70
2009,06,19,13,27,19.70
2009,06,19,13,28,19.70
2009,06,19,13,29,19.70
2009,06,19,13,30,19.60
2009,06,19,13,31,19.60
2009,06,19,13,32,19.50
2009,06,19,13,33,19.30
2009,06,19,13,34,19.20
2009,06,19,13,35,19.10
2009,06,19,13,36,19.10
2009,06,19,13,37,19.10
2009,06,19,13,38,19.10
2009,06,19,13,39,19.10
2009,06,19,13,40,19.10
2009,06,19,13,41,19.10
2009,06,19,13,42,19.10
2009,06,19,13,43,19.10
2009,06,19,13,44,19.10
2009,06,19,13,45,19.20
2009,06,19,13,46,19.20
2009,06,19,13,47,19.20
2009,06,19,13,48,19.30
2009,06,19,13,49,19.40
2009,06,19,13,50,19.40
2009,06,19,13,51,19.40
2009,06,19,13,52,19.40
2009,06,19,13,53,19.40
2009,06,19,13,54,19.40
2009,06,19,13,55,19.40
2009,06,19,13,56,19.40
2009,06,19,13,57,19.40
2009,06,19,13,58,19.30
2009,06,19,13,59,19.30
2009,06,19,14,00,19.20
2009,06,19,14,01,19.20
2009,06,19,14,02,19.20
2009,06,19,14,03,19.20
2009,06,19,14,04,19.20
2009,06,19,14,05,19.30
2009,06,19,14,06,19.30
2009,06,19,14,07,19.20
2009,06,19,14,08,19.20
2009,06,19,14,09,19.20
2009,06,19,14,10,19.20
2009,06,19,14,11,19.20
2009,06,19,14,12,19.20
2009,06,19,14,13,19.20
2009,06,19,14,14,19.20
2009,06,19,14,15,19.30
2009,06,19,14,16,19.30
2009,06,19,14,17,19.30
2009,06,19,14,18,19.40
2009,06,19,14,19,19.40
2009,06,19,14,20,19.50
2009,06,19,14,21,19.50
2009,06,19,14,22,19.40
2009,06,19,14,23,19.40
2009,06,19,14,24,19.40
2009,06,19,14,25,19.30
2009,06,19,14,26,19.30
2009,06,19,14,27,19.30
2009,06,19,14,28,19.30
2009,06,19,14,29,19.30
2009,06,19,14,30,19.30
2009,06,19,14,31,19.30
2009,06,19,14,32,19.40
2009,06,19,14,33,19.40
2009,06,19,14,34,19.50
2009,06,19,14,35,19.50
2009,06,19,14,36,19.60
2009,06,19,14,37,19.60
2009,06,19,14,38,19.60
2009,06,19,14,39,19.70
2009,06,19,14,40,19.70
2009,06,19,14,41,19.70
2009,06,19,14,42,19.70
2009,06,19,14,43,19.70
2009,06,19,14,44,19.70
2009,06,19,14,45,19.70
2009,06,19,14,46,19.70
2009,06,19,14,47,19.70
2009,06,19,14,48,19.70
2009,06,19,14,49,19.70
2009,06,19,14,50,19.60
2009,06,19,14,51,19.50
2009,06,19,14,52,19.50
2009,06,19,14,53,19.50
2009,06,19,14,54,19.60
2009,06,19,14,55,19.60
2009,06,19,14,56,19.70
2009,06,19,14,57,19.70
2009,06,19,14,58,19.80
2009,06,19,14,59,19.80
2009,06,19,15,00,19.90
2009,06,19,15,01,19.90
2009,06,19,15,02,19.90
2009,06,19,15,03,19.90
2009,06,19,15,04,19.90
2009,06,19,15,05,20.00
2009,06,19,15,06,20.00
2009,06,19,15,07,20.00
2009,06,19,15,08,20.00
2009,06,19,15,09,20.00
2009,06,19,15,10,19.90
2009,06,19,15,11,19.90
2009,06,19,15,12,19.90
2009,06,19,15,13,19.90
2009,06,19,15,14,19.80
2009,06,19,15,15,19.80
2009,06,19,15,16,19.80
2009,06,19,15,17,19.80
2009,06,19,15,18,19.80
2009,06,19,15,19,19.80
2009,06,19,15,20,19.80
2009,06,19,15,21,19.80
2009,06,19,15,22,19.70
2009,06,19,15,23,19.70
2009,06,19,15,24,19.60
2009,06,19,15,25,19.70
2009,06,19,15,26,19.70
2009,06,19,15,27,19.80
2009,06,19,15,28,19.80
2009,06,19,15,29,19.90
2009,06,19,15,30,20.00
2009,06,19,15,31,19.90
2009,06,19,15,32,19.90
2009,06,19,15,33,19.90
2009,06,19,15,34,19.90
2009,06,19,15,35,19.90
2009,06,19,15,36,20.00
2009,06,19,15,37,20.00
2009,06,19,15,38,20.10
2009,06,19,15,39,20.10
2009,06,19,15,40,20.20
2009,06,19,15,41,20.30
2009,06,19,15,42,20.40
2009,06,19,15,43,20.50
2009,06,19,15,44,20.70
2009,06,19,15,45,20.80
2009,06,19,15,46,20.90
2009,06,19,15,47,21.00
2009,06,19,15,48,21.10
2009,06,19,15,49,21.10
2009,06,19,15,50,21.10
2009,06,19,15,51,21.10
2009,06,19,15,52,21.10
2009,06,19,15,53,21.20
2009,06,19,15,54,21.20
2009,06,19,15,55,21.20
2009,06,19,15,56,21.20
2009,06,19,15,57,21.00
2009,06,19,15,58,21.00
2009,06,19,15,59,20.90
2009,06,19,16,00,20.90
2009,06,19,16,01,21.00
2009,06,19,16,02,20.90
2009,06,19,16,03,20.90
2009,06,19,16,04,21.00
2009,06,19,16,05,21.00
2009,06,19,16,06,21.00
2009,06,19,16,07,21.10
2009,06,19,16,08,21.10
2009,06,19,16,09,21.10
2009,06,19,16,10,21.20
2009,06,19,16,11,21.10
2009,06,19,16,12,21.10
2009,06,19,16,13,21.00
2009,06,19,16,14,20.90
2009,06,19,16,15,21.00
2009,06,19,16,16,21.00
2009,06,19,16,17,21.00
2009,06,19,16,18,21.10
2009,06,19,16,19,21.10
2009,06,19,16,20,21.10
2009,06,19,16,21,21.20
2009,06,19,16,22,21.40
2009,06,19,16,23,21.50
2009,06,19,16,24,21.60
2009,06,19,16,25,21.70
2009,06,19,16,26,21.80
2009,06,19,16,27,21.80
2009,06,19,16,28,21.80
2009,06,19,16,29,21.80
2009,06,19,16,30,21.80
2009,06,19,16,31,21.80
2009,06,19,16,32,21.80
2009,06,19,16,33,21.90
2009,06,19,16,34,21.90
2009,06,19,16,35,21.90
2009,06,19,16,36,22.00
2009,06,19,16,37,22.10
2009,06,19,16,38,22.10
2009,06,19,16,39,22.10
2009,06,19,16,40,22.10
2009,06,19,16,41,22.10
2009,06,19,16,42,22.00
2009,06,19,16,43,21.90
2009,06,19,16,44,21.80
2009,06,19,16,45,21.80
2009,06,19,16,46,21.80
2009,06,19,16,47,21.80
2009,06,19,16,48,21.70
2009,06,19,16,49,21.60
2009,06,19,16,50,21.40
2009,06,19,16,51,21.30
2009,06,19,16,52,21.10
2009,06,19,16,53,21.10
2009,06,19,16,54,21.00
2009,06,19,16,55,21.10
2009,06,19,16,56,21.10
2009,06,19,16,57,21.00
2009,06,19,16,58,20.90
2009,06,19,16,59,20.90
2009,06,19,17,00,20.80
2009,06,19,17,01,20.70
2009,06,19,17,02,20.70
2009,06,19,17,03,20.70
2009,06,19,17,04,20.60
2009,06,19,17,05,20.60
2009,06,19,17,06,20.60
2009,06,19,17,07,20.60
2009,06,19,17,08,20.60
2009,06,19,17,09,20.60
2009,06,19,17,10,20.50
2009,06,19,17,11,20.50
2009,06,19,17,12,20.40
2009,06,19,17,13,20.40
2009,06,19,17,14,20.40
2009,06,19,17,15,20.40
2009,06,19,17,16,20.40
2009,06,19,17,17,20.50
2009,06,19,17,18,20.50
2009,06,19,17,19,20.50
2009,06,19,17,20,20.50
2009,06,19,17,21,20.60
2009,06,19,17,22,20.60
2009,06,19,17,23,20.60